Погода в Бакуре

Россия / Республика Коми     65°02′29″N   53°51′03″E
темп.,
°C
ветер,
м/с
пор.,
м/с
влажн.,
%
обл.,
%
осадки,
мм/ч
давл.,
гПа
погр.,
м
23 апреля, пт
пт2300:00+4ююз5119198 0.1 1016895
03:00+4ю51289100 0.2 1016805
06:00+4ююз61290100 0.0 10151021
09:00+4ююз51194100 0.1 1017964
12:00+5юз498566 0.4 1018978
15:00+6зюз496990 0.5 10201324
18:00+5юз0086100 0.0 102111
21:00+3юв119394 0.0 102325
24 апреля, сб
сб2400:00+4ююв1492100 0.0 102372
03:00+4юв269364 0.0 1023128
06:00+5ю2885100 0.0 1023194
09:00+7ююв268297 0.0 1023211
12:00+13ю465283 0.0 10221395
15:00+14ююв454663 0.0 10221819
18:00+11юв386099 0.0 1021320
21:00+7вюв398090 0.0 1021208
25 апреля, вс
вс2500:00+7вюв4107598 0.0 1020284
03:00+6вюв41176100 0.0 1019413
06:00+6вюв4127098 0.0 1018673
09:00+10вюв51058100 0.0 10171695
12:00+10вюв51055100 0.1 10151642
15:00+11вюв51056100 0.3 10131526
18:00+8вюв5967100 0.1 10121151
21:00+7вюв4107787 0.1 1011859
26 апреля, пн
пн2600:00+6в497963 0.1 1009584
03:00+4в4108699 0.1 1008579
06:00+4вюв41087100 0.0 1006800
09:00+4в3896100 0.2 1005703
12:00+4вюв2697100 0.5 1005636
15:00+5юв2593100 0.6 1005662
18:00+4юв1492100 0.1 1004223
21:00+4юв2496100 0.3 1004179
27 апреля, вт
вт2700:00+3ююв1297100 0.1 100469
03:00+3ююв129799 0.1 100341
06:00+4ю2388100 0.0 1003273
09:00+5ююз2379100 0.1 1003600
12:00+6ю3467100 0.1 1002984
15:00+6ююз3564100 0.1 1002927
18:00+4ююз3587100 0.1 1002565
21:00+3ююз2588100 0.1 1001468